Baltimore, MD

5:46 PM EDT on July 28, 2016 (GMT -0400)
Baltimore-Washington International

Weather History for KBWI - August, 2014

Change the Weather History Date:

Wednesday, August 13, 2014

  Actual Average Record
Temperature  
Mean Temperature 73 °F 76 °F  
Max Temperature 82 °F 86 °F 99 °F (2002)
Min Temperature 63 °F 66 °F 54 °F (1950)
Degree Days  
Heating Degree Days 0 0  
Month to date heating degree days 0 0  
Since 1 June heating degree days 2 15  
Since 1 July heating degree days 0 0  
Cooling Degree Days 8 11  
Month to date cooling degree days 105 145  
Year to date cooling degree days 781 839  
Since 1 June cooling degree days 696 755  
Growing Degree Days 26 (Base 50)    
Moisture  
Dew Point 67 °F    
Average Humidity 72    
Maximum Humidity 93    
Minimum Humidity 50    
Precipitation  
Precipitation 0.00 in 0.10 in 3.82 in (1873)
Month to date precipitation 7.13 1.44  
Year to date precipitation 37.50 26.00  
Snow  
Snow 0.00 in 0.00 in - ()
Month to date snowfall 0.0 0.0  
Since 1 July snowfall 0.0 0.0  
Snow Depth 0.00 in    
Sea Level Pressure  
Sea Level Pressure 29.77 in    
Wind  
Wind Speed 10 mph (NW)    
Max Wind Speed 21 mph    
Max Gust Speed 28 mph    
Visibility 6 miles    
Events Fog    
T = Trace of Precipitation, MM = Missing Value Source: NWS Daily Summary

Daily Weather History Graph

Daily Weather History Graph

Search for Another Location

Airport or City:

Trip Planner

Search our weather history database for the weather conditions in past years. The results will help you decide how hot, cold, wet, or windy it might be!

Date:

Astronomy

Aug. 13, 2014 Rise Set
Actual Time 6:17 AM EDT 8:04 PM EDT
Civil Twilight 5:49 AM EDT 8:33 PM EDT
Nautical Twilight 5:14 AM EDT 9:07 PM EDT
Astronomical Twilight 4:36 AM EDT 9:45 PM EDT
Moon 9:50 PM EDT (8/13) 9:41 AM EDT (8/13)
Length of Visible Light 14h 44m
Length of Day
13h 46m
Waning Gibbous, 88% of the Moon is Illuminated
Aug 13
Waning Gibbous
Aug 17
Last Quarter
Aug 25
New
Sep 2
First Quarter
Sep 8
Full

Hourly Weather History & Observations

Time (EDT) Temp. Heat Index Dew Point Humidity Pressure Visibility Wind Dir Wind Speed Gust Speed Precip Events Conditions
12:54 AM 73.9 °F - 72.0 °F 93% 29.76 in 5.0 mi Calm Calm - N/A   Overcast
1:49 AM 73.4 °F - 71.6 °F 94% 29.76 in 2.5 mi Calm Calm - N/A   Overcast
1:54 AM 73.9 °F - 72.0 °F 93% 29.75 in 2.0 mi Calm Calm - N/A   Overcast
2:54 AM 73.0 °F - 72.0 °F 96% 29.74 in 2.0 mi Calm Calm - N/A   Overcast
3:04 AM 73.4 °F - 71.6 °F 94% 29.75 in 1.8 mi Calm Calm - N/A   Overcast
3:16 AM 73.4 °F - 71.6 °F 94% 29.75 in 2.0 mi Calm Calm - N/A   Mostly Cloudy
3:36 AM 73.4 °F - 71.6 °F 94% 29.74 in 2.0 mi North 3.5 mph - N/A   Overcast
3:54 AM 73.0 °F - 72.0 °F 96% 29.75 in 2.5 mi Calm Calm - N/A   Overcast
4:10 AM 73.4 °F - 71.6 °F 94% 29.75 in 2.0 mi Calm Calm - N/A   Overcast
4:14 AM 71.6 °F - 71.6 °F 100% 29.75 in 2.0 mi Calm Calm - N/A   Overcast
4:25 AM 71.6 °F - 71.6 °F 100% 29.75 in 2.0 mi NE 4.6 mph - N/A   Overcast
4:37 AM 71.6 °F - 69.8 °F 94% 29.74 in 3.0 mi ENE 3.5 mph - N/A   Mostly Cloudy
4:51 AM 71.6 °F - 69.8 °F 94% 29.74 in 2.5 mi East 4.6 mph - N/A   Mostly Cloudy
4:54 AM 71.1 °F - 70.0 °F 96% 29.73 in 2.5 mi East 4.6 mph - N/A   Mostly Cloudy
5:03 AM 69.8 °F - 69.8 °F 100% 29.74 in 2.5 mi ENE 3.5 mph - N/A   Mostly Cloudy
5:24 AM 69.8 °F - 69.8 °F 100% 29.75 in 2.0 mi Calm Calm - N/A   Mostly Cloudy
5:43 AM 69.8 °F - 69.8 °F 100% 29.75 in 1.8 mi Calm Calm - N/A   Overcast
5:54 AM 71.1 °F - 69.1 °F 93% 29.76 in 1.5 mi NW 3.5 mph - N/A   Overcast
6:07 AM 71.6 °F - 69.8 °F 94% 29.76 in 1.5 mi Calm Calm - N/A   Overcast
6:29 AM 71.6 °F - 69.8 °F 94% 29.76 in 3.0 mi Calm Calm - N/A   Mostly Cloudy
6:54 AM 71.1 °F - 69.1 °F 93% 29.75 in 7.0 mi WNW 5.8 mph - N/A Fog Shallow Fog
10:54 AM 78.8 °F - 62.6 °F 57% 29.79 in 10.0 mi WNW 12.7 mph 20.7 mph N/A   Scattered Clouds
11:54 AM 79.0 °F - 62.1 °F 56% 29.79 in 10.0 mi WNW 12.7 mph - N/A   Scattered Clouds
12:54 PM 80.1 °F 80.9 °F 60.1 °F 50% 29.79 in 10.0 mi West 13.8 mph - N/A   Scattered Clouds
1:54 PM 81.0 °F 81.6 °F 60.1 °F 49% 29.78 in 10.0 mi West 17.3 mph 25.3 mph N/A   Scattered Clouds
2:54 PM 81.0 °F 81.7 °F 61.0 °F 50% 29.78 in 10.0 mi WNW 12.7 mph - N/A   Scattered Clouds
3:54 PM 81.0 °F 81.6 °F 60.1 °F 49% 29.77 in 10.0 mi WNW 17.3 mph 25.3 mph N/A   Scattered Clouds
4:54 PM 81.0 °F 81.6 °F 60.1 °F 49% 29.77 in 10.0 mi West 17.3 mph 24.2 mph N/A   Scattered Clouds
5:54 PM 79.0 °F - 60.1 °F 52% 29.79 in 10.0 mi West 15.0 mph 21.9 mph N/A   Scattered Clouds
6:54 PM 77.0 °F - 57.9 °F 52% 29.79 in 10.0 mi WNW 13.8 mph 24.2 mph N/A   Scattered Clouds
7:54 PM 73.9 °F - 59.0 °F 59% 29.82 in 10.0 mi West 11.5 mph 19.6 mph N/A   Scattered Clouds
8:54 PM 72.0 °F - 57.0 °F 59% 29.85 in 10.0 mi West 9.2 mph - N/A   Partly Cloudy
9:54 PM 70.0 °F - 55.9 °F 61% 29.87 in 10.0 mi West 10.4 mph - N/A   Clear